Wind_Speed
69 69 69 68 68 68 68 67 67 66 63 62 62 62 64 63 63 64 64 64 64 64 64 64 63 64 64 64 65 65 65 66 67 68 68 70 71 73
68 69 68 68 68 68 67 67 67 66 63 60 61 62 63 63 64 64 65 65 64 64 65 65 65 65 65 65 66 66 66 67 68 69 70 71 72 74
68 68 68 68 68 68 68 67 66 66 64 61 62 62 63 64 65 65 65 65 65 66 65 65 65 65 65 66 66 67 68 68 69 70 71 72 73 75
67 68 67 68 68 67 67 66 65 65 64 62 62 63 63 64 65 64 65 65 65 65 65 65 65 65 65 66 67 68 68 69 70 71 72 74 76 77
67 67 67 68 67 67 67 66 66 65 65 63 62 63 63 63 64 64 64 64 63 63 64 64 65 65 65 66 67 68 69 70 71 72 74 75 77 79
67 66 66 66 65 66 66 66 66 65 65 64 63 62 62 63 64 63 63 62 61 62 62 63 64 65 65 67 68 68 69 71 72 73 75 76 77 79
64 64 63 64 65 65 66 65 65 64 64 63 62 61 61 62 62 62 61 61 61 61 62 62 63 64 65 66 67 68 70 71 72 73 74 75 76 78
60 60 61 61 62 62 62 62 62 61 61 61 60 60 60 60 61 61 61 61 60 60 62 62 63 63 64 65 66 68 69 70 72 72 73 74 75 76
57 57 57 58 59 59 59 60 59 59 59 60 60 59 59 59 60 60 61 60 60 61 62 61 62 62 63 64 65 66 68 69 70 71 72 72 73 72
56 55 55 55 55 56 56 57 57 58 58 58 57 57 57 58 59 60 60 61 60 60 61 60 60 62 62 62 63 64 66 68 69 70 70 70 69 68
54 54 54 54 54 55 55 54 55 55 56 56 56 56 56 57 58 59 59 60 58 57 59 60 60 61 61 59 60 62 64 66 67 67 67 66 64 64
52 52 52 52 53 54 54 54 53 53 54 55 55 55 55 55 57 57 58 58 57 56 56 59 60 61 59 56 57 58 60 62 64 64 63 61 61 61
50 50 51 52 52 52 53 52 52 53 53 53 54 53 54 54 54 55 55 55 55 55 56 58 58 58 58 55 53 54 57 59 60 60 58 57 57 57
47 48 49 49 50 50 50 50 50 51 51 51 51 51 51 51 52 53 53 53 54 54 55 56 56 56 55 54 51 50 52 55 55 54 53 53 53 53
46 46 46 47 47 47 48 49 49 49 49 49 48 48 49 49 50 50 50 51 51 51 52 53 53 53 52 52 50 48 49 49 50 51 50 50 49 48
45 45 45 45 46 46 46 47 47 47 47 46 46 46 47 47 47 48 48 49 48 47 48 50 50 49 49 49 48 47 47 46 46 48 47 45 44 42
44 44 45 45 45 45 45 45 45 43 43 43 43 43 44 44 44 45 45 45 44 44 45 46 47 47 46 46 46 45 44 43 44 45 43 40 37 37
43 42 42 42 43 43 43 42 41 41 41 40 40 40 41 41 41 42 42 42 41 41 42 43 44 44 43 42 44 44 42 41 41 41 38 35 32 32
40 40 39 39 39 38 38 38 38 38 38 38 38 38 38 38 38 38 39 39 39 39 40 41 42 41 40 38 38 43 42 39 38 36 34 31 27 25
37 37 36 36 35 34 35 34 34 35 35 35 35 35 35 35 35 36 37 37 37 37 37 38 39 39 38 36 35 37 40 38 34 31 28 24 21 21
34 34 33 33 33 33 33 32 32 32 32 32 32 32 33 33 34 34 34 34 34 34 34 35 36 36 35 35 34 33 35 34 29 25 21 18 17 18
33 33 32 31 31 31 30 29 29 30 29 29 30 31 31 31 32 32 32 32 32 31 31 32 32 33 33 33 32 31 30 29 25 20 16 14 16 18
32 31 30 29 29 28 27 27 27 27 27 27 28 29 29 29 29 29 29 29 29 29 29 29 30 30 31 31 30 28 26 24 20 15 13 14 16 19
Wind_Direction
278 278 278 279 279 279 279 279 280 280 280 279 279 279 278 278 278 278 278 279 279 279 278 277 277 276 275 273 272 271 271 270 269 267 266 265 264 263
277 277 278 278 278 278 279 279 279 280 280 280 278 277 277 278 279 279 279 279 279 279 278 277 277 276 276 274 273 272 272 271 270 269 268 268 267 265
277 277 277 276 276 277 278 278 279 279 280 279 278 278 278 279 279 279 279 279 279 278 278 277 277 277 276 275 274 274 273 273 272 271 271 270 269 268
278 277 277 277 276 276 276 277 278 279 279 279 278 278 278 278 278 279 279 279 278 278 278 277 277 277 277 276 276 276 275 275 274 274 273 272 272 270
278 277 277 276 276 276 275 276 277 277 278 278 277 278 278 278 278 278 279 278 278 278 277 277 277 278 278 278 277 277 277 276 276 276 276 275 274 273
278 277 276 276 275 275 275 276 276 276 277 277 277 278 278 278 278 278 278 278 278 278 278 278 278 279 279 278 278 278 278 278 278 278 278 277 276 275
278 277 276 275 275 274 275 275 275 275 276 277 277 277 278 278 278 277 277 277 278 278 278 279 279 280 280 279 279 279 279 279 279 280 279 279 278 277
278 278 277 276 275 275 274 274 274 275 276 277 277 278 278 277 276 276 277 277 278 278 279 279 280 281 281 281 281 281 281 281 281 281 281 280 279 278
279 278 277 277 276 275 274 274 274 275 276 276 277 277 276 276 276 277 277 278 278 278 279 280 280 281 282 282 282 281 281 282 282 282 282 281 280 278
279 278 277 277 277 276 275 275 275 276 276 276 276 275 275 275 276 276 277 278 278 279 280 280 281 282 282 283 283 283 283 283 282 283 283 282 281 279
279 278 278 278 277 277 276 276 276 276 276 276 276 275 275 275 276 277 278 278 279 280 281 281 282 283 283 284 284 284 284 284 284 285 284 283 281 279
279 279 279 278 278 277 277 276 276 276 275 276 276 276 276 276 276 277 278 279 280 280 281 282 283 284 285 285 285 285 285 285 286 286 284 283 281 279
281 280 279 279 279 278 278 277 276 275 275 275 276 276 276 276 276 278 279 280 281 282 282 283 285 286 287 288 287 287 286 286 286 286 284 282 281 280
282 281 280 280 280 280 279 278 277 276 276 276 276 276 275 276 277 278 280 281 282 284 285 286 287 288 289 290 290 289 288 288 288 287 284 282 281 280
284 283 282 281 281 281 280 279 278 277 277 276 275 275 275 276 277 279 280 281 283 285 287 288 289 290 292 293 293 292 290 289 289 288 285 283 281 279
286 285 284 283 282 281 280 280 279 278 276 275 274 274 275 277 278 279 280 282 284 287 288 289 291 292 294 295 295 294 293 292 290 289 287 284 281 278
288 287 286 285 284 282 281 280 279 278 276 275 275 275 276 277 278 279 281 283 286 287 288 289 291 294 296 297 297 296 295 295 294 293 289 284 279 275
290 289 288 286 285 284 282 281 279 277 276 276 276 276 277 278 279 281 283 285 286 287 288 289 291 294 296 298 299 298 298 298 297 295 291 286 278 271
292 291 290 288 286 285 283 282 280 278 277 276 277 277 278 279 281 282 284 286 287 288 290 292 293 295 296 298 298 298 300 300 298 296 292 286 275 261
296 295 293 290 287 286 285 283 281 279 278 278 278 278 279 280 282 283 285 287 288 289 291 293 294 296 298 300 300 299 301 302 299 295 290 281 263 245
299 298 296 294 290 289 287 284 281 280 280 279 278 278 280 282 283 285 286 288 289 290 292 294 296 298 300 303 304 303 302 303 301 296 285 269 244 225
302 301 298 296 293 291 289 286 283 282 281 280 279 281 283 283 285 286 287 288 290 292 293 295 297 299 303 305 307 306 304 303 299 292 275 250 223 210
303 302 300 299 296 293 291 289 286 283 282 281 282 282 283 285 286 287 289 290 291 292 294 296 298 301 304 307 308 307 306 302 295 279 255 227 209 203
Height
5614 5609 5606 5603 5599 5596 5592 5588 5585 5583 5585 5584 5580 5575 5570 5567 5565 5563 5561 5559 5557 5555 5553 5551 5550 5548 5547 5546 5546 5545 5545 5545 5545 5546 5546 5547 5548 5549
5594 5590 5587 5584 5580 5576 5573 5570 5566 5563 5564 5566 5561 5556 5552 5549 5546 5544 5542 5540 5537 5535 5533 5532 5530 5528 5527 5525 5525 5524 5523 5523 5523 5523 5523 5523 5524 5525
5574 5571 5568 5564 5560 5557 5553 5551 5548 5544 5544 5546 5541 5537 5533 5530 5527 5525 5523 5521 5518 5516 5513 5511 5509 5508 5506 5504 5503 5502 5501 5500 5500 5499 5499 5499 5498 5499
5555 5550 5548 5543 5540 5537 5534 5531 5529 5526 5524 5525 5522 5518 5515 5511 5508 5505 5503 5501 5499 5496 5493 5491 5489 5487 5485 5483 5481 5479 5478 5477 5476 5475 5474 5473 5472 5471
5534 5530 5527 5522 5520 5517 5514 5512 5509 5506 5504 5504 5503 5499 5496 5492 5489 5486 5484 5481 5478 5476 5474 5471 5469 5466 5464 5462 5459 5457 5455 5453 5452 5450 5448 5446 5444 5442
5513 5510 5506 5503 5500 5496 5494 5492 5489 5487 5485 5483 5483 5480 5477 5473 5469 5468 5464 5461 5459 5457 5454 5452 5449 5446 5444 5440 5437 5435 5432 5429 5426 5424 5421 5418 5415 5413
5493 5489 5486 5482 5479 5476 5474 5472 5469 5467 5465 5463 5462 5460 5458 5453 5451 5447 5445 5443 5441 5438 5435 5432 5429 5427 5423 5418 5415 5411 5408 5405 5401 5398 5394 5391 5387 5384
5473 5469 5466 5462 5459 5456 5454 5452 5450 5448 5446 5444 5443 5441 5439 5434 5430 5428 5426 5424 5424 5420 5415 5413 5409 5407 5402 5398 5393 5389 5385 5380 5376 5372 5368 5364 5360 5355
5454 5450 5447 5443 5439 5437 5434 5432 5431 5429 5428 5426 5424 5422 5418 5415 5411 5409 5407 5405 5405 5401 5396 5395 5390 5387 5382 5377 5373 5367 5362 5357 5352 5347 5343 5338 5333 5328
5435 5431 5428 5425 5421 5418 5416 5414 5412 5410 5408 5406 5405 5403 5400 5396 5393 5391 5388 5387 5386 5382 5376 5375 5371 5367 5363 5358 5352 5346 5340 5334 5328 5323 5318 5313 5307 5302
5416 5413 5410 5408 5404 5400 5399 5398 5395 5393 5389 5387 5386 5384 5382 5379 5375 5373 5370 5368 5367 5364 5358 5355 5352 5347 5344 5340 5333 5325 5318 5311 5305 5300 5294 5289 5283 5278
5399 5396 5392 5389 5386 5382 5381 5380 5379 5375 5372 5370 5368 5366 5364 5361 5358 5355 5352 5350 5348 5347 5341 5335 5332 5326 5325 5323 5315 5306 5298 5290 5283 5278 5272 5267 5261 5255
5382 5379 5375 5372 5369 5366 5363 5362 5360 5357 5355 5353 5351 5349 5347 5344 5341 5338 5335 5333 5330 5328 5323 5317 5313 5307 5303 5303 5298 5289 5280 5272 5264 5258 5251 5246 5241 5235
5366 5362 5359 5355 5352 5349 5347 5344 5342 5340 5338 5336 5334 5332 5330 5328 5325 5322 5319 5316 5313 5310 5305 5299 5295 5290 5284 5281 5278 5272 5263 5253 5246 5239 5233 5228 5223 5217
5349 5346 5343 5340 5336 5334 5331 5328 5325 5323 5321 5320 5319 5316 5314 5311 5309 5306 5303 5300 5297 5293 5288 5282 5277 5273 5267 5263 5259 5253 5246 5239 5229 5222 5216 5211 5206 5200
5334 5331 5328 5324 5321 5318 5315 5312 5309 5306 5305 5304 5303 5301 5298 5296 5294 5291 5288 5285 5282 5279 5272 5267 5261 5257 5252 5246 5241 5236 5229 5222 5215 5207 5200 5195 5190 5184
5320 5316 5313 5309 5306 5303 5299 5296 5293 5291 5290 5289 5288 5286 5284 5282 5279 5277 5274 5271 5268 5265 5260 5253 5247 5243 5237 5232 5226 5220 5213 5207 5200 5192 5185 5181 5177 5172
5306 5302 5299 5295 5291 5288 5285 5282 5280 5278 5276 5275 5274 5273 5271 5269 5266 5264 5261 5258 5255 5251 5246 5241 5236 5231 5226 5220 5212 5205 5200 5193 5187 5179 5172 5168 5165 5162
5292 5288 5285 5281 5278 5274 5271 5269 5267 5265 5264 5263 5262 5260 5258 5256 5254 5251 5248 5245 5242 5239 5234 5229 5223 5218 5214 5210 5204 5192 5186 5181 5174 5168 5162 5157 5154 5153
5280 5276 5272 5268 5265 5262 5259 5257 5255 5254 5252 5251 5250 5248 5247 5245 5243 5240 5237 5234 5231 5227 5223 5217 5212 5207 5202 5198 5193 5185 5175 5169 5164 5159 5154 5149 5147 5147
5270 5265 5261 5257 5254 5251 5248 5246 5245 5243 5242 5240 5239 5237 5236 5234 5232 5229 5226 5223 5220 5216 5212 5207 5202 5197 5191 5186 5182 5176 5168 5160 5155 5150 5147 5144 5144 5145
5260 5256 5251 5247 5244 5241 5238 5236 5234 5233 5232 5230 5229 5228 5226 5224 5222 5219 5216 5213 5210 5206 5202 5198 5193 5188 5183 5177 5172 5167 5161 5154 5149 5145 5142 5141 5141 5144
5251 5247 5243 5239 5235 5232 5229 5227 5225 5224 5222 5221 5220 5218 5216 5214 5212 5209 5207 5203 5200 5197 5193 5190 5185 5180 5175 5170 5165 5159 5154 5148 5144 5142 5140 5140 5141 5144